Location: Arborea
(39.7744°N, 8.5819°E)
Time: 02:10:03
(UTC+00:00)

USA 229 - Pass Details

Date: 04 June 2022
Orbit: 938 x 1274 km, 63.4° (Epoch: 24 May)

Event Time Altitude Azimuth Distance (km) Brightness Sun altitude
Rises 23:53:17 0° 313° (NW) 4,065 7.2 -27.4°
Reaches altitude 10° 23:56:36 10° 299° (WNW) 3,148 6.4 -27.4°
Enters shadow 00:01:52 23° 255° (WSW) 2,381 5.3 -27.2°
